weather.gov     
National Weather Service

Regional Weather Roundup
NWS Homepage
This page is being discontinued on March 12, 2014.
The same data is available at this site. Please update your bookmarks.
Thank you, and we apologize for the inconvenience.
Please send an email to SR-SRH.Webmaster@noaa.gov with any concerns.


Current Version
Previous Version:    01  02  03  04  05  06  07  08  09  10  11  12  13  14  15  16  17  18  19  20  21  22  23  24  25  26  
[Printable]
221
ASUS42 KTBW 250610
RWRFL
FLORIDA REGIONAL WEATHER ROUNDUP
NATIONAL WEATHER SERVICE TAMPA BAY RUSKIN FL
200 AM EDT FRI JUL 25 2014

NOTE: "FAIR" INDICATES FEW OR NO CLOUDS BELOW 12,000 FEET WITH NO
SIGNIFICANT WEATHER AND/OR OBSTRUCTIONS TO VISIBILITY.


FLZ001>010-012>015-112-114-115-250700-
PANHANDLE FLORIDA

CITY           SKY/WX    TMP DP  RH WIND       PRES   REMARKS
PENSACOLA      CLEAR     78  74  87 S7        30.00S
PENSACOLA NAS  CLEAR     79  74  84 SW6       29.99F
MILTON NAS     CLEAR     74  71  91 S3        30.01S
CRESTVIEW      CLEAR     73  72  96 CALM      30.02F
DUKE FIELD     FAIR      74  74 100 E1        30.01S
VALPARAISO     PTCLDY    81  75  82 CALM      30.00F
MARY ESTHER    PTCLDY    82  72  71 SW3       29.99F
TRI COUNTY     FAIR      73  72  96 CALM      30.01F
PANAMA CITY    FAIR      77  74  90 CALM      30.00S
TYNDALL AFB    CLEAR     82  76  83 SW10      30.01F
APALACHICOLA   CLEAR     82  75  79 SW8       30.00F

STATION/POSITION SKY/WX   TEMP    WIND        PRES    WAVE   SWELL
                          AIR SEA DIR/SP/G            HT/PER HT/PER
                          (F)     (DEG/KT/KT) (MB)    (FT/S) (FT/S)
30.1N   87.6W              83 84  200/ 10/ 12 1015.5F   1/ 3
29.2N   88.2W              83 85  220/ 12/ 14 1016.0F
28.8N   86.0W              83 84  240/  8/ 10 1016.4F   2/ 5   2/ 5
PANAMA CITY BEAC           83 84  240/ 12/ 13 1015.9F
CAPE SAN BLAS    NOT AVBL
TOWER C                    82     240/ 10/ 11 1016.1F
28.5N   84.5W              84 85  240/ 10/ 12 1016.5F   1/11

$$
FLZ011-016>038-118-127-128-134-139-239-250700-
NORTH FLORIDA

CITY           SKY/WX    TMP DP  RH WIND       PRES   REMARKS
MARIANNA       CLEAR     75  75 100 W3        30.00S
TALLAHASSEE    CLEAR     76  72  87 CALM      30.01S
PERRY          CLEAR     73  72  94 CALM      30.02S
CROSS CITY       N/A     77  74  90 CALM      30.01F
GAINESVILLE    CLEAR     76  73  91 CALM      30.02F
MAYPORT NAS    PTCLDY    81  73  76 SW6       30.01S
JACKSONVILLE   PTCLDY    76  73  91 S5        30.00F
JAX NAS        PTCLDY    83  73  72 W6        30.02S
JAX CRAIG      PTCLDY    82  73  74 W7        30.01S
JAX CECIL      CLEAR     75  73  94 S3        30.02S
FERNANDINA BEA FAIR      81  72  74 W6        30.00S
ST AUGUSTINE   PTCLDY    79  73  82 SW3       30.03S

STATION/POSITION SKY/WX   TEMP    WIND        PRES    WAVE   SWELL
                          AIR SEA DIR/SP/G            HT/PER HT/PER
                          (F)     (DEG/KT/KT) (MB)    (FT/S) (FT/S)
SHELL POINT      NOT AVBL
KEATON BEACH               84     250/ 12/ 13 1016.4F
CEDAR KEY                  85     270/  7/ 10 1017.3F
FERNANDINA                 80 86  230/  7/  9 1015.5S
30.7N   81.3W                 85                N/A     3/ 5
MAYPORT                    82 86  250/  6/  7   N/A
31.4N   80.9W              83 85  260/ 14/ 16 1015.5R   3/ 5
ST AUGUSTINE               79     240/  5/  6 1017.2F

$$
FLZ040-043>046-052-053-057-058-063-144-250700-
INTERIOR CENTRAL FLORIDA

CITY           SKY/WX    TMP DP  RH WIND       PRES   REMARKS
OCALA          MOCLDY    77  68  73 CALM      30.05R
LEESBURG       MOCLDY    82  76  81 W5        30.05S
ORLANDO EXEC   PTCLDY    79  74  84 CALM      30.04S
ORLANDO INTL   PTCLDY    76  73  91 SW3       30.05R
WINTER HAVEN   CLEAR     76  73  91 CALM      30.06S
LAKELAND         N/A     77  73  88 CALM      30.05S
BARTOW         FAIR      73  73 100 CALM      30.06S
OKEECHOBEE     CLEAR     73  73 100 MISG      30.06S

$$
FLZ041-047-054-059-064-141-147-250700-
EAST CENTRAL FLORIDA

CITY           SKY/WX    TMP DP  RH WIND       PRES   REMARKS
DAYTONA BEACH  PTCLDY    76  75  97 S5        30.04S
DELAND         PTCLDY    77  73  88 CALM      30.05S
JFK SPACE CTR  CLEAR     79  79 100 W3        30.03F
CAPE CANAVERAL CLEAR     79  75  86 S2        30.03F
PATRICK AFB    CLEAR     79  76  89 SW7       30.04F
MELBOURNE      CLEAR     77  75  93 SW5       30.04F
VERO BEACH     CLEAR     76  76 100 S5        30.05S
FT PIERCE      CLEAR     75  72  90 CALM      30.05S
STUART         CLEAR     79  73  83 CALM      30.06S

STATION/POSITION SKY/WX   TEMP    WIND        PRES    WAVE   SWELL
                          AIR SEA DIR/SP/G            HT/PER HT/PER
                          (F)     (DEG/KT/KT) (MB)    (FT/S) (FT/S)
28.5N   80.2W              83 83  190/ 10/ 10 1017.3S
28.9N   78.5W              83 83  200/ 14/ 16 1017.6F   3/ 4   2/ 7
TRIDENT PIER               80 87  210/  7/  8 1016.8S
28.4N   80.5W                 85                N/A     2/ 4
27.6N   80.2W                 84                N/A     1/ 8

$$
FLZ050-056-061-142-242-148-248-149-249-151-251-155-255-
160-260-250700-
WEST CENTRAL FLORIDA

CITY           SKY/WX    TMP DP  RH WIND       PRES   REMARKS
CRYSTAL RIVER  FAIR      75  72  88 CALM      30.03F
INVERNESS      FAIR      77  73  88 CALM      30.04S
BROOKSVILLE    MOCLDY    77  74  90 CALM      30.04F
ZEPHYRHILLS    FAIR      73  73 100 CALM      30.06S
CLEARWATER     PTCLDY    80  77  90 CALM      30.04S
TAMPA INTL     MOCLDY    83  73  72 W6        30.04F
TAMPA EXEC     PTCLDY    77  73  88 CALM      30.05S FOG
PLANT CITY     PTCLDY    79 N/A N/A SW3       30.07S
MACDILL AFB    CLEAR     81  78  90 W3        30.04S
ST PETERSBURG  PTCLDY    85  75  72 SW3       30.02F
SARASOTA       MOCLDY    82  75  79 CALM      30.03S
VENICE         FAIR      82  75  78 SW5       30.05S

STATION/POSITION SKY/WX   TEMP    WIND        PRES    WAVE   SWELL
                          AIR SEA DIR/SP/G            HT/PER HT/PER
                          (F)     (DEG/KT/KT) (MB)    (FT/S) (FT/S)
CEDAR KEY                  85     270/  7/ 10 1017.3F
28.5N   84.5W              84 85  240/ 10/ 12 1016.5F   1/11
27.3N   84.3W                 87                N/A     2/ 8
CLEARWATER BEACH           85 89  230/  8/ 10 1016.9S
MIDDLE TAMPA BAY           85     260/  8/  9 1017.4F
VENICE                     85 90  220/  5/  6 1017.0R

$$
FLZ066-069-070-075>078-162-262-165-265-250700-
SOUTHWEST FLORIDA AND KEYS

CITY           SKY/WX    TMP DP  RH WIND       PRES   REMARKS
PUNTA GORDA    CLEAR     79  76  90 CALM      30.06S
FT MYERS       CLEAR     80  76  87 S5        30.04S
SOUTHWEST INTL CLEAR     78  75  90 CALM      30.05S
NAPLES         CLEAR     81  78  91 CALM      30.05S
MARATHON       PTCLDY    85  76  74 SE7       30.05F
KEY WEST NAS   CLEAR     84  75  74 SE8       30.05F
KEY WEST INTL  CLEAR     85  75  72 E8        30.05F

STATION/POSITION SKY/WX   TEMP    WIND        PRES    WAVE   SWELL
                          AIR SEA DIR/SP/G            HT/PER HT/PER
                          (F)     (DEG/KT/KT) (MB)    (FT/S) (FT/S)
VENICE                     85 90  220/  5/  6 1017.0R
NAPLES                     81 94  100/  3/  5 1018.1R
DRY TORTUGAS               85     130/  6/  7 1017.6F
SAND KEY                   85     120/ 10/ 12 1017.7F
SOMBRERO KEY               84     120/ 11/ 12 1018.2F
LONG KEY                   85 89  130/  9/ 10 1018.5F
MOLASSES REEF              84 86  130/  8/ 10 1017.5F

$$
FLZ067-068-071>074-168-172>174-250700-
SOUTHEAST FLORIDA

CITY           SKY/WX    TMP DP  RH WIND       PRES   REMARKS
W PALM BEACH   PTCLDY    81  74  79 S5        30.04S
FT LAUDER-EXEC CLEAR     82  76  81 CALM      30.05S
FT LAUDERDALE  PTCLDY    83  74  74 S8        30.04F
POMPANO BEACH    N/A     84  75  74 S3        30.05S
PEMBROKE PINES CLEAR     81  74  79 CALM      30.06F
OPA LOCKA      CLEAR     78  74  87 CALM      30.06S
MIAMI          CLEAR     80  73  79 SE3       30.05F
WEST KENDALL   CLEAR     78  75  90 CALM      30.06S
HOMESTEAD      CLEAR     77  75  92 SW3       30.06S

STATION/POSITION SKY/WX   TEMP    WIND        PRES    WAVE   SWELL
                          AIR SEA DIR/SP/G            HT/PER HT/PER
                          (F)     (DEG/KT/KT) (MB)    (FT/S) (FT/S)
PORT EVERGLADES            84     140/  8/ 10 1017.4
VIRGINIA KEY               84 88  140/  6/  8   N/A
LAKE WORTH                 84 83              1017.2F
FOWEY ROCKS                84 87  130/  9/  9 1017.8F
SETTLEMENT POINT           82     140/  5/  6 1018.3F

$$





U.S. Dept. of Commerce
NOAA National Weather Service
1325 East West Highway
Silver Spring, MD 20910
E-mail: w-nws.webmaster@noaa.gov
Page last modified: May 16, 2007
NATIONAL WEATHER SERVICE: for Safety, for Work, for Fun - FOR LIFE